sat.trackr.live / text

‹ back to catalog

STARLINK-3879

NORAD 52473 · 2022-049Y

PAYLOAD ACTIVE UNKNOWN

§ Identity

Operator
Country
US
Launch date
2022-05-06
Launch site
AFETR
Launch vehicle
Mass (kg)
RCS (m²)

Purposes: comms

External: N2YO · Heavens-Above · Gunter

§ Orbital elements

Epoch: 2026-05-25T02:06:12.534048Z

Period
95.44 min
Inclination
53.2132°
Eccentricity
0.0001814
Mean motion
15.08847229 rev/d
Perigee alt
538.5 km
Apogee alt
541.0 km
Semi-major
6,917.9 km
B*
-7.6876e-5
RAAN
76.1553°
Arg perigee
86.1071°
Mean anomaly
274.0128°
Rev number
22,378

§ Raw data

STARLINK-38791 52473U 22049Y   26145.08764507 -.00001512  00000+0 -76876-4 0  99912 52473  53.2132  76.1553 0001814  86.1071 274.0128 15.08847229223785

JSON: /api/v1/satellites/52473 · /tle

For live sub-satellite position, see the globe view (requires WebGL).

§ Visibility from observer

Set your observer location to see the next 7 days of passes ≥ 10°. The values pass through the URL so the page stays shareable.

No JS? Fill the form by hand. The geolocation button needs JavaScript.